STARLINK-4674, 53591

Orbit data source: Space-Track

STARLINK-4674, 53591 is a payload satellite owned by SpaceX/Seattle (US) in LEO that was launched on Sun, 28 Aug 2022 UTC via an FALCON 9 launch vehicle from the Air Force Eastern Test Range (AFETR). Payload-class satellites include a variety of spacecraft equipped with specific instruments for various scientific and technological missions. These include communications satellites like Starlink; space stations such as the ISS; scientific satellites like the Hubble; Earth observation satellites from companies like Planet Labs, Umbra, and HawkEye 360; GPS; miniature CubeSats for education and research; and military/defense satellites.

Loading next visibility...
Identifier
53591, 2022-104D
Orbit
LEO
Country
Flag of USUS
Related business
Manufacturer
SpaceX/Seattle
Mission
Operational Commercial Communications
Bus & Motor
STARLINK, Unknown motor
Mass
300 kg wet, ~290 kg dry
Launch date (UTC)
2022-08-28 (3 years ago)
Launch vehicle
FALCON 9
Launch site
Air Force Eastern Test Range (AFETR)
Object type
Payload
Rocket body
Debris
Shape & HBR
Box + 1 Pan, 10.1 m
Radar Cross Section
13.562 m², Large (>1 m²)

Expand to show TLE details & history
Last TLE update: 17 hours ago

TLE from 17 hours ago
0 STARLINK-4674
1 53591U 22104D   25287.10841275  .00001569  00000-0  11667-3 0  9999
2 53591  53.2138 182.3220 0001566  81.3860 278.7310 15.08832449173833
Epoch: 2025-10-14T02:36Z
TLE epoch observation values (Epoch: 2025-10-14T02:36:06.861Z)
Latitude
0.00001°
Longitude
120.39185°
Altitude
540.499 km
Speed
7.593 km/s
True Right ascension
12h 09m 17s
True Declination
0° 00' 00"
Sunlit
Object was in daylight at epoch
Visualization orbit readout
Latitude
Unknown
Longitude
Unknown
Altitude
Unknown
Speed
Unknown
Apparent Right ascension
Unknown
Apparent Declination
Unknown
Sunlit
N/A
Visualization observer readout
Local Sidereal Time
13:50:33
Azimuth
Unknown
Elevation
Unknown
Doppler factor
Unknown
Orbital elements
Apogee altitude
541.095 km
Perigee altitude
538.929 km
Semi-major axis
6,918.149 km
Eccentricity
0.00016
Inclination
53.2138°
RAAN
182.322°
Arg. of periapsis
81.386°
True anomaly
278.71326°
Mean anomaly
278.731°
Eccentric anomaly
278.72213°
Mean motion
3.77188 °/min
Orbital period
95.44 mins
BSTAR
0.00011667
Loading maneuver chart data...
Computing Atmospheric mass density...
Loading historical data...
Loading historical data...
Loading historical data...
Loading historical data...
Loading historical data...
Loading historical data...
Loading historical data...

Documentation

Showing up to 5 results
|